Location: Recife
(8.0585°S, 34.8848°W)
Time: 21:24:46
(UTC-03:00)

A-11 Canister half - Pass Details

Date: 22 April 2026
Orbit: 1515 x 1684 km, 47.2° (Epoch: 16 May)

Event Time Altitude Azimuth Distance (km) Brightness Sun altitude
Rises 11:59:39 0° 325° (NW) 4,845 11.9 67.1°
Reaches altitude 10° 12:02:45 10° 327° (NNW) 3,880 11.6 66.8°
Maximum altitude 12:12:43 74° 51° (NE) 1,733 10.7 65.5°
Drops below altitude 10° 12:22:52 10° 134° (SE) 3,950 11.0 64.0°
Sets 12:26:03 0° 136° (SE) 4,937 11.4 63.5°
